Starlink 3740

operational
NORAD ID: 52265 Int'l Des: 2022-041 Owner: SPXS Country: US Constellation: starlink
LEOCIRCULAR

Über Starlink 3740

Beschreibung wird geladen...

Live-Position

3D-Globus wird geladen...

Nächste Überflüge

Höhenverlauf

Altitude vs Time

uPlot chart will show altitude changes over time

Zweizeiliger Elementsatz

1 52265U 22041E 25343.48560690 .00001975 00000-0 14218-3 0 9995
2 52265 53.2177 154.0602 0001661 81.9388 278.1793 15.08826562200749
Epoch: 9. Dez. 2025 • Age: 8 hours

Aktueller Status

Höhe 544.7 km
Geschwindigkeit 7.60 km/s
Subsatellitenpunkt 50.42°N, 111.48°W
Startdatum 21. Apr. 2022
Alter 3.6 years
Typ internet

Technische Details

Klassifizierung Payload
Masse 297.00 kg
Trockenmasse 275.00 kg
Gesamtmasse 297.00 kg
Länge 0.20 m
Durchmesser 2.80 m
Spannweite 9.00 m
Form Box + pan
Hersteller SPXS
Bus-Typ Starlink
Phasenstatus In Orbit
Besitzer/Staat SPXS/US

Große Konstellationen

Loading constellations...